EW5290 Weather Reports


Display with metric or nautical units.
time (UTC)temp
F
wind
direction
speed
MPH
gust
MPH
rain 1hr
in
rain 24hr
in
rain mn
in
humidity
%
barometer
mb
20260504050533 46 0 0.0 0.0 0.00 0.00 0.00 72 1004.4
20260504045531 46 0 0.0 0.0 0.00 0.00 0.00 73 1004.5
20260504045031 46 0 0.0 0.0 0.00 0.00 0.00 74 1004.6
20260504044557 46 0 0.0 0.0 0.00 0.00 0.00 74 1004.7
20260504044031 46 0 0.0 0.0 0.00 0.00 0.00 77 1004.8
20260504043530 45 0 0.0 0.0 0.00 0.00 0.00 75 1004.8
20260504043047 45 0 0.0 0.0 0.00 0.00 0.00 75 1004.9
20260504042530 45 0 0.0 0.0 0.00 0.00 0.00 78 1005.0
20260504042030 46 0 0.0 0.0 0.00 0.00 0.00 79 1005.0
20260504041543 46 0 0.0 0.0 0.00 0.00 0.00 80 1005.1
20260504041029 46 0 0.0 0.0 0.00 0.00 0.00 80 1005.1
20260504040532 46 0 0.0 0.0 0.00 0.00 0.00 79 1005.3
20260504040043 46 0 0.0 0.0 0.00 0.00 0.00 78 1005.3
20260504035529 46 0 0.0 0.0 0.00 0.00 0.00 79 1005.4
20260504035031 47 0 0.0 0.0 0.00 0.00 0.00 78 1005.5
20260504034551 47 0 0.0 0.0 0.00 0.00 0.00 78 1005.5
20260504034030 47 0 0.0 0.0 0.00 0.00 0.00 78 1005.6
20260504033530 47 0 0.0 0.0 0.00 0.00 0.00 74 1005.6
20260504033053 48 0 0.0 0.0 0.00 0.00 0.00 77 1005.7
20260504032530 48 0 0.0 0.0 0.00 0.00 0.00 76 1005.8
20260504032029 48 0 0.0 0.0 0.00 0.00 0.00 75 1005.7
20260504031545 48 0 0.0 0.0 0.00 0.00 0.00 74 1005.8
20260504031030 49 0 0.0 0.0 0.00 0.00 0.00 73 1005.8
20260504030530 49 0 0.0 0.0 0.00 0.00 0.00 71 1005.8
20260504030044 49 0 0.0 0.0 0.00 0.00 0.00 70 1005.9
20260504025531 50 0 0.0 0.0 0.00 0.00 0.00 69 1005.9
20260504025033 50 0 0.0 0.0 0.00 0.00 0.00 68 1005.8
20260504024546 50 0 0.0 0.0 0.00 0.00 0.00 68 1005.8
20260504024028 51 0 0.0 0.0 0.00 0.00 0.00 69 1005.8
20260504023529 51 0 0.0 0.0 0.00 0.00 0.00 67 1005.8
20260504023049 52 0 0.0 0.0 0.00 0.00 0.00 64 1005.7
20260504022528 53 0 0.0 0.0 0.00 0.00 0.00 62 1005.7
20260504022028 53 0 0.0 0.0 0.00 0.00 0.00 59 1005.8
20260504021547 54 0 0.0 0.0 0.00 0.00 0.00 58 1005.8
20260504021030 54 0 0.0 0.0 0.00 0.00 0.00 57 1005.8
20260504020528 55 0 0.0 0.0 0.00 0.00 0.00 54 1005.8
20260504020046 55 0 0.0 0.0 0.00 0.00 0.00 54 1005.9
20260504015530 56 0 0.0 0.0 0.00 0.00 0.00 50 1005.9
20260504015031 57 0 0.0 0.0 0.00 0.00 0.00 51 1005.8
20260504014548 57 0 0.0 0.0 0.00 0.00 0.00 49 1005.9
20260504014031 58 0 0.0 0.0 0.00 0.00 0.00 50 1006.0
20260504013530 59 0 0.0 0.0 0.00 0.00 0.00 48 1006.0
20260504013049 60 0 0.0 0.0 0.00 0.00 0.00 49 1005.9
20260504012530 61 0 0.0 0.0 0.00 0.00 0.00 46 1005.9
20260504012033 63 0 0.0 0.0 0.00 0.00 0.00 44 1005.9
20260504011538 64 0 0.0 0.0 0.00 0.00 0.00 44 1005.9
20260504011028 65 0 0.0 1.0 0.00 0.00 0.00 39 1005.9
20260504010528 65 0 0.0 3.0 0.00 0.00 0.00 36 1006.0
20260504010048 66 0 0.0 5.0 0.00 0.00 0.00 35 1006.0
20260504005529 66 301 1.0 5.0 0.00 0.00 0.00 34 1006.0
20260504005029 67 331 2.0 5.0 0.00 0.00 0.00 34 1006.0
20260504004544 67 305 1.0 6.0 0.00 0.00 0.00 34 1006.1
20260504004029 67 294 2.0 6.0 0.00 0.00 0.00 34 1006.0
20260504003528 68 309 1.0 10.0 0.00 0.00 0.00 34 1006.0
20260504003046 68 320 2.0 10.0 0.00 0.00 0.00 32 1006.0
20260504002531 68 296 3.0 10.0 0.00 0.00 0.00 32 1006.0
20260504002030 68 329 2.0 10.0 0.00 0.00 0.00 34 1006.1
20260504001605 69 329 2.0 10.0 0.00 0.00 0.00 34 1006.0
20260504001030 69 257 2.0 10.0 0.00 0.00 0.00 34 1006.0
20260504000534 69 301 2.0 9.0 0.00 0.00 0.00 34 1006.1
20260504000048 69 311 4.0 10.0 0.00 0.00 0.00 34 1006.0
20260503235530 69 298 4.0 10.0 0.00 0.00 0.00 33 1006.0
20260503235030 69 299 3.0 10.0 0.00 0.00 0.00 34 1006.0
20260503234543 69 277 3.0 8.0 0.00 0.00 0.00 34 1006.0
20260503234031 69 325 2.0 8.0 0.00 0.00 0.00 35 1006.1
20260503233530 69 268 3.0 9.0 0.00 0.00 0.00 33 1006.0
20260503233047 69 340 3.0 9.0 0.00 0.00 0.00 35 1006.1
20260503232528 70 292 3.0 10.0 0.00 0.00 0.00 35 1006.2
20260503232029 70 294 4.0 10.0 0.00 0.00 0.00 33 1006.2
20260503231541 70 292 4.0 12.0 0.00 0.00 0.00 31 1006.2
20260503231032 70 281 2.0 12.0 0.00 0.00 0.00 32 1006.2
20260503230529 70 277 3.0 13.0 0.00 0.00 0.00 31 1006.4
20260503230047 70 270 3.0 13.0 0.00 0.00 0.00 35 1006.2
20260503225530 70 286 3.0 13.0 0.00 0.00 0.00 35 1006.3
20260503225031 70 261 3.0 11.0 0.00 0.00 0.00 34 1006.2
20260503224546 70 302 4.0 15.0 0.00 0.00 0.00 34 1006.3
20260503224030 70 336 3.0 15.0 0.00 0.00 0.00 38 1006.2
20260503223529 70 290 3.0 10.0 0.00 0.00 0.00 33 1006.3
20260503223045 70 285 4.0 11.0 0.00 0.00 0.00 37 1006.2
20260503222531 70 309 4.0 12.0 0.00 0.00 0.00 36 1006.1
20260503222029 70 250 3.0 17.0 0.00 0.00 0.00 35 1006.1
20260503221544 70 329 4.0 17.0 0.00 0.00 0.00 34 1006.2
20260503221029 70 290 4.0 15.0 0.00 0.00 0.00 32 1006.2
20260503220529 70 263 3.0 13.0 0.00 0.00 0.00 34 1006.1
20260503220106 70 306 3.0 13.0 0.00 0.00 0.00 34 1006.2
20260503215529 70 313 3.0 12.0 0.00 0.00 0.00 33 1006.3
20260503215031 70 300 5.0 12.0 0.00 0.00 0.00 33 1006.2
20260503214548 71 289 4.0 10.0 0.00 0.00 0.00 34 1006.2
20260503214030 71 333 3.0 14.0 0.00 0.00 0.00 35 1006.2
20260503213531 71 283 6.0 14.0 0.00 0.00 0.00 33 1006.4
20260503213047 71 352 2.0 12.0 0.00 0.00 0.00 34 1006.4
20260503212533 71 327 6.0 12.0 0.00 0.00 0.00 35 1006.4
20260503212030 71 316 2.0 20.0 0.00 0.00 0.00 34 1006.3
20260503211600 71 244 7.0 20.0 0.00 0.00 0.00 34 1006.5
20260503211028 71 15 2.0 11.0 0.00 0.00 0.00 36 1006.4
20260503210530 72 12 4.0 11.0 0.00 0.00 0.00 34 1006.5
20260503210044 72 350 5.0 11.0 0.00 0.00 0.00 34 1006.4
20260503205530 71 284 4.0 11.0 0.00 0.00 0.00 33 1006.4
20260503205032 72 287 4.0 11.0 0.00 0.00 0.00 34 1006.5
20260503204547 72 336 3.0 8.0 0.00 0.00 0.00 32 1006.6
20260503204029 72 336 2.0 12.0 0.00 0.00 0.00 33 1006.5
20260503203532 71 305 4.0 12.0 0.00 0.00 0.00 33 1006.6
20260503203046 71 48 3.0 12.0 0.00 0.00 0.00 31 1006.6
20260503202531 71 330 3.0 12.0 0.00 0.00 0.00 34 1006.7
20260503202031 71 43 4.0 16.0 0.00 0.00 0.00 33 1006.8
20260503201549 71 300 5.0 16.0 0.00 0.00 0.00 35 1006.7
20260503201028 71 273 4.0 13.0 0.00 0.00 0.00 34 1006.7
20260503200530 71 329 4.0 13.0 0.00 0.00 0.00 37 1006.7
20260503200047 71 276 7.0 13.0 0.00 0.00 0.00 34 1006.8
20260503195528 71 289 3.0 11.0 0.00 0.00 0.00 35 1006.8
20260503195029 71 257 5.0 11.0 0.00 0.00 0.00 34 1006.7
20260503194549 70 18 4.0 15.0 0.00 0.00 0.00 34 1006.8
20260503194028 71 276 6.0 15.0 0.00 0.00 0.00 35 1006.8
20260503193532 71 281 5.0 15.0 0.00 0.00 0.00 33 1007.0
20260503193049 70 5 5.0 11.0 0.00 0.00 0.00 35 1006.8
20260503192530 70 17 4.0 13.0 0.00 0.00 0.00 34 1006.9
20260503192030 70 315 3.0 14.0 0.00 0.00 0.00 37 1006.9
20260503191543 70 331 5.0 14.0 0.00 0.00 0.00 35 1007.0
20260503191030 70 0 5.0 13.0 0.00 0.00 0.00 34 1007.1
20260503190530 70 5 3.0 13.0 0.00 0.00 0.00 35 1007.1
20260503190042 70 306 4.0 12.0 0.00 0.00 0.00 37 1007.1
20260503185530 70 323 4.0 12.0 0.00 0.00 0.00 39 1007.1
20260503185031 70 316 3.0 11.0 0.00 0.00 0.00 38 1007.2
20260503184549 70 346 4.0 14.0 0.00 0.00 0.00 35 1007.1
20260503184030 70 294 3.0 14.0 0.00 0.00 0.00 36 1007.1
20260503183531 70 327 5.0 14.0 0.00 0.00 0.00 35 1007.2
20260503183045 70 338 4.0 12.0 0.00 0.00 0.00 37 1007.1
20260503182529 70 311 4.0 11.0 0.00 0.00 0.00 41 1007.3
20260503182030 69 329 5.0 11.0 0.00 0.00 0.00 37 1007.0
20260503181617 69 348 3.0 11.0 0.00 0.00 0.00 40 1007.2
20260503181031 69 5 3.0 11.0 0.00 0.00 0.00 39 1007.3
20260503180532 69 331 2.0 10.0 0.00 0.00 0.00 40 1007.2
20260503180050 69 313 3.0 10.0 0.00 0.00 0.00 40 1007.2
20260503175529 69 360 5.0 10.0 0.00 0.00 0.00 39 1007.3
20260503175028 69 325 3.0 11.0 0.00 0.00 0.00 42 1007.3
20260503174543 69 5 3.0 13.0 0.00 0.00 0.00 42 1007.4
20260503174032 68 342 3.0 13.0 0.00 0.00 0.00 43 1007.5
20260503173528 68 352 7.0 13.0 0.00 0.00 0.00 41 1007.4
20260503173053 68 283 3.0 13.0 0.00 0.00 0.00 43 1007.5
20260503172532 68 318 5.0 13.0 0.00 0.00 0.00 44 1007.5
20260503172030 67 10 2.0 13.0 0.00 0.00 0.00 44 1007.4
20260503171550 67 336 5.0 13.0 0.00 0.00 0.00 44 1007.5
20260503171031 67 294 5.0 13.0 0.00 0.00 0.00 45 1007.4
20260503170531 66 341 5.0 13.0 0.00 0.00 0.00 44 1007.5
20260503150529 60 302 3.0 13.0 0.00 0.00 0.00 57 1007.0
20260503131030 53 258 2.0 9.0 0.00 0.00 0.00 60 1006.6
20260503130530 52 225 2.0 10.0 0.00 0.00 0.00 60 1006.5
20260503110533 48 0 0.0 1.0 0.00 0.00 0.00 66 1006.8
20260503081553 53 59 3.0 7.0 0.00 0.00 0.00 55 1010.1
20260503081030 52 68 2.0 5.0 0.00 0.00 0.00 56 1009.8
20260503080530 52 69 0.0 2.0 0.00 0.00 0.00 59 1009.2